Location: Bennemühlen
(52.5740°N, 9.7135°E)
Time: 08:01:37
(UTC+00:00)

Vanguard 2 Rocket - Pass Details

Date: 17 February 2026
Orbit: 553 x 3286 km, 32.9° (Epoch: 11 March)

Event Time Altitude Azimuth Distance (km) Brightness Sun altitude
Rises 17:00:54 0° 263° (W) 5,930 13.7 -4.2°
Reaches altitude 10° 17:07:47 10° 243° (WSW) 4,241 11.9 -5.3°
Maximum altitude 17:12:30 14° 217° (SW) 3,426 10.6 -6.0°
Drops below altitude 10° 17:16:20 10° 189° (S) 3,281 10.0 -6.5°
Sets 17:20:22 0° 164° (SSE) 3,774 10.0 -7.1°
